Weather in Malykan

Russia / Sakha (Yakutia) Republic     60°41′03″N   124°43′55″E
temp.,
°C
wind,
m/s
gust,
m/s
humid.,
%
clouds,
%
prec.,
mm/h
press.,
hPa
HPBL,
m
16 may, sun
sun1600:00+7se22555 0.0 100113
03:00+5se226117 0.0 100020
06:00+7se2757100 0.0 998239
09:00+12sw244538 0.0 996826
12:00+15sw353692 0.0 9952453
15:00+15wsw562899 0.0 9932602
18:00+13w5541100 0.0 9931500
21:00+8w4860100 0.0 995686
17 may, mon
mon1700:00+4wnw5982100 0.7 996761
03:00+3wnw4976100 0.8 9961012
06:00+2w4961100 0.0 9971014
09:00+2w5748100 0.1 9981307
12:00+4w6641100 0.0 9982093
15:00+4w5644100 0.2 9991915
18:00+3w5739100 0.1 10001905
21:00+1w3847100 0.1 1001605
18 may, tue
tue1800:00−2w2662100 0.0 1002242
03:00−4wsw237970 0.0 100379
06:00−2wsw36635 0.0 1004481
09:00+1w4641100 0.1 10042060
12:00+2w4535100 0.1 10032087
15:00+4wsw4529100 0.1 10033006
18:00+3w3530100 0.0 10042196
21:00−1sw11439 0.0 100510
19 may, wed
wed1900:00−3s115386 0.0 100510
03:00−4s11585 0.0 100511
06:00−1s125235 0.0 1005152
09:00+4ssw252990 0.0 10052231
12:00+6ssw3527100 0.0 10042958
15:00+7ssw2431100 0.0 10032128
18:00+2sw3576100 0.8 1005536
21:00+1e118897 1.3 100529
20 may, thu
thu2000:00−2ene229364 0.1 100516
03:00−3ene2289100 0.1 100439
06:000e1374100 0.0 1004124
09:00+4ene1261100 0.0 1004481
12:00+8ene2441100 0.0 10031637
15:00+8ene2346100 0.0 10041468
18:00+5nne2369100 0.4 1005734
21:00+1nw2599100 5.5 1007208